Find Local Weather

World > North America > United States > Michigan

Harbor Beach, Michigan Regional Weather

Lat: 43.85N, Lon: 82.65W
Wx Zone: MIZ049
Feedback
Expires:201804240600;;411470
ASUS43 KDTX 240510
RWRMI 
MICHIGAN HOURLY REGIONAL WEATHER ROUNDUP
NATIONAL WEATHER SERVICE DETROIT/PONTIAC MI
100 AM EDT TUE APR 24 2018

NOTE: "FAIR" INDICATES FEW OR NO CLOUDS BELOW 12,000 FEET WITH NO
SIGNIFICANT WEATHER AND/OR OBSTRUCTION TO VISIBILITY.


MIZ047>049-052>055-059>063-066>070-074>076-081>083-240600-
SOUTHEAST LOWER MICHIGAN
  
CITY           SKY/WX    TMP DP  RH WIND       PRES   REMARKS
ADRIAN         CLOUDY    53  46  77 SW5       30.16F                  
ALMA           FAIR      57  51  80 CALM      30.14S                  
ANN ARBOR      CLOUDY    54  46  74 S3        30.16F                  
BAD AXE        FAIR      52  35  52 CALM      30.15F                  
CARO           FAIR      57  40  53 S5        30.15R                  
DETROIT CITY   CLOUDY    57  44  62 SW7       30.16F                  
DETROIT        CLOUDY    55  43  63 S6        30.16F                  
FLINT          FAIR      56  45  66 SW5       30.15S                  
GROSSE ILE     MOCLDY    49  45  84 CALM      30.15F                  
HILLSDALE      DRIZZLE   50  45  81 SE5       30.14F                  
HOWELL         FAIR      56  44  64 S8        30.15S                  

CITY           SKY/WX    TMP DP  RH WIND       PRES   REMARKS
JACKSON        CLOUDY    55  45  68 SE9       30.15F                  
LAMBERTVILLE   CLOUDY    55  45  69 CALM      30.15S                  
LANSING        MOCLDY    57  47  69 S10       30.15S                  
LAPEER         FAIR      55  43  63 CALM      30.16S                  
MASON          CLOUDY    56  43  61 CALM      30.15S                  
MONROE         CLOUDY    53  46  77 CALM      30.14F                  
PONTIAC        MOCLDY    57  45  64 S5        30.15F                  
PORT HOPE        N/A     51  36  56 S3        30.14S                  
PORT HURON     FAIR      52  41  66 CALM      30.17F                  
TRI CITIES     FAIR      46  40  79 NE3       30.15S                  
MIDLAND        FAIR      47  37  68 CALM      30.14S                  
TROY           FAIR      58  43  57 CALM      30.18S                  
SAGINAW HB     FAIR      46  41  81 CALM      30.14S                  
$$

SKY/WX - Weather  TMP - Temperature  DP - Dewpoint  RH - Relative Humidity
WIND - Wind Direction/Speed PRES - Barometric Pressure